| time (UTC) | temp F | wind direction | speed knots | gust knots | rain 1hr in | rain 24hr in | rain mn in | humidity % | barometer mb |
| 20260504081803 | 49 | 191 | 2.6 | 5.2 | 0.00 | 0.00 | 0.00 | 55 | 1014.1 |
| 20260504080923 | 49 | 185 | 1.7 | 5.2 | 0.00 | 0.00 | 0.00 | 54 | 1014.2 |
| 20260504050024 | 48 | 233 | 2.6 | 4.3 | 0.00 | 0.00 | 0.00 | 54 | 1014.7 |
| 20260504045403 | 47 | 258 | 1.7 | 4.3 | 0.00 | 0.00 | 0.00 | 54 | 1014.6 |
| 20260504044503 | 46 | 294 | 0.9 | 2.6 | 0.00 | 0.00 | 0.00 | 57 | 1014.6 |
| 20260504043604 | 45 | 294 | 0.0 | 1.7 | 0.00 | 0.00 | 0.00 | 61 | 1014.7 |
| 20260504042703 | 46 | 294 | 0.0 | 1.7 | 0.00 | 0.00 | 0.00 | 60 | 1014.5 |
| 20260504041803 | 46 | 294 | 0.0 | 1.7 | 0.00 | 0.00 | 0.00 | 59 | 1014.4 |
| 20260504040903 | 47 | 294 | 0.9 | 1.7 | 0.00 | 0.00 | 0.00 | 58 | 1014.3 |
| 20260504040003 | 48 | 294 | 0.0 | 2.6 | 0.00 | 0.00 | 0.00 | 55 | 1014.2 |
| 20260504035424 | 48 | 294 | 0.9 | 2.6 | 0.00 | 0.00 | 0.00 | 56 | 1014.2 |
| 20260504034524 | 49 | 294 | 0.0 | 1.7 | 0.00 | 0.00 | 0.00 | 50 | 1014.2 |
| 20260504033624 | 48 | 294 | 0.9 | 1.7 | 0.00 | 0.00 | 0.00 | 51 | 1014.3 |
| 20260504032703 | 48 | 294 | 0.0 | 2.6 | 0.00 | 0.00 | 0.00 | 51 | 1014.4 |
| 20260504031803 | 48 | 294 | 0.9 | 2.6 | 0.00 | 0.00 | 0.00 | 52 | 1014.4 |
| 20260504030903 | 47 | 294 | 0.0 | 1.7 | 0.00 | 0.00 | 0.00 | 55 | 1014.4 |
| 20260504030003 | 46 | 0 | 0.0 | 0.0 | 0.00 | 0.00 | 0.00 | 56 | 1014.3 |
| 20260504025403 | 46 | 0 | 0.0 | 1.7 | 0.00 | 0.00 | 0.00 | 57 | 1014.4 |
| 20260504024503 | 46 | 294 | 0.0 | 1.7 | 0.00 | 0.00 | 0.00 | 59 | 1014.3 |
| 20260504023624 | 47 | 294 | 0.9 | 1.7 | 0.00 | 0.00 | 0.00 | 60 | 1014.3 |
| 20260504022703 | 46 | 0 | 0.0 | 1.7 | 0.00 | 0.00 | 0.00 | 58 | 1014.2 |
| 20260504021803 | 47 | 294 | 0.0 | 1.7 | 0.00 | 0.00 | 0.00 | 57 | 1014.2 |
| 20260504020903 | 47 | 294 | 0.9 | 1.7 | 0.00 | 0.00 | 0.00 | 57 | 1014.1 |
| 20260504020004 | 47 | 294 | 0.0 | 0.9 | 0.00 | 0.00 | 0.00 | 55 | 1014.1 |
| 20260504015403 | 47 | 0 | 0.0 | 0.0 | 0.00 | 0.00 | 0.00 | 56 | 1014.1 |
| 20260504014503 | 48 | 0 | 0.0 | 0.0 | 0.00 | 0.00 | 0.00 | 55 | 1014.0 |
| 20260504013602 | 49 | 0 | 0.0 | 1.7 | 0.00 | 0.00 | 0.00 | 54 | 1014.1 |
| 20260504012703 | 50 | 294 | 0.9 | 1.7 | 0.00 | 0.00 | 0.00 | 54 | 1014.0 |
| 20260504011803 | 51 | 294 | 0.9 | 1.7 | 0.00 | 0.00 | 0.00 | 48 | 1013.9 |
| 20260504010903 | 51 | 294 | 0.0 | 1.7 | 0.00 | 0.00 | 0.00 | 48 | 1013.8 |
| 20260504010002 | 51 | 294 | 0.0 | 2.6 | 0.00 | 0.00 | 0.00 | 49 | 1013.7 |
| 20260504005403 | 52 | 294 | 0.0 | 2.6 | 0.00 | 0.00 | 0.00 | 50 | 1013.8 |
| 20260504004524 | 52 | 294 | 1.7 | 2.6 | 0.00 | 0.00 | 0.00 | 47 | 1013.7 |
| 20260504003603 | 52 | 294 | 0.9 | 1.7 | 0.00 | 0.00 | 0.00 | 49 | 1013.7 |
| 20260504002704 | 52 | 294 | 0.0 | 1.7 | 0.00 | 0.00 | 0.00 | 47 | 1013.7 |
| 20260504001803 | 54 | 0 | 0.0 | 1.7 | 0.00 | 0.00 | 0.00 | 47 | 1013.6 |
| 20260504000903 | 54 | 294 | 0.9 | 2.6 | 0.00 | 0.00 | 0.00 | 46 | 1013.6 |
| 20260504000003 | 55 | 294 | 0.9 | 2.6 | 0.00 | 0.00 | 0.00 | 44 | 1013.5 |
| 20260503235403 | 55 | 294 | 0.9 | 3.5 | 0.00 | 0.00 | 0.00 | 44 | 1013.4 |
| 20260503234504 | 56 | 294 | 1.7 | 5.2 | 0.00 | 0.00 | 0.00 | 44 | 1013.3 |
| 20260503233603 | 57 | 286 | 1.7 | 6.1 | 0.00 | 0.00 | 0.00 | 41 | 1013.4 |
| 20260503232703 | 58 | 268 | 1.7 | 6.1 | 0.00 | 0.00 | 0.00 | 41 | 1013.3 |
| 20260503231803 | 58 | 295 | 1.7 | 9.6 | 0.00 | 0.00 | 0.00 | 41 | 1013.1 |
| 20260503230903 | 59 | 285 | 3.5 | 9.6 | 0.00 | 0.00 | 0.00 | 39 | 1013.0 |
| 20260503230003 | 59 | 293 | 3.5 | 9.6 | 0.00 | 0.00 | 0.00 | 39 | 1012.9 |
| 20260503225403 | 59 | 290 | 3.5 | 9.6 | 0.00 | 0.00 | 0.00 | 22 | 1013.0 |
| 20260503224503 | 59 | 300 | 4.3 | 14.8 | 0.00 | 0.00 | 0.00 | 38 | 1013.0 |
| 20260503223604 | 59 | 281 | 6.1 | 14.8 | 0.00 | 0.00 | 0.00 | 25 | 1013.0 |
| 20260503222703 | 59 | 284 | 5.2 | 12.2 | 0.00 | 0.00 | 0.00 | 39 | 1013.1 |
| 20260503221803 | 59 | 291 | 6.1 | 12.2 | 0.00 | 0.00 | 0.00 | 23 | 1013.1 |
| 20260503220924 | 59 | 302 | 4.3 | 11.3 | 0.00 | 0.00 | 0.00 | 39 | 1013.3 |
| 20260503220003 | 59 | 293 | 4.3 | 12.2 | 0.00 | 0.00 | 0.00 | 39 | 1013.2 |
| 20260503215403 | 59 | 285 | 6.1 | 12.2 | 0.00 | 0.00 | 0.00 | 38 | 1013.2 |
| 20260503214503 | 59 | 296 | 5.2 | 14.8 | 0.00 | 0.00 | 0.00 | 39 | 1013.2 |
| 20260503213603 | 59 | 298 | 5.2 | 14.8 | 0.00 | 0.00 | 0.00 | 39 | 1013.1 |
| 20260503212703 | 59 | 303 | 4.3 | 14.8 | 0.00 | 0.00 | 0.00 | 40 | 1013.0 |
| 20260503211803 | 59 | 278 | 5.2 | 14.8 | 0.00 | 0.00 | 0.00 | 38 | 1013.1 |
| 20260503210903 | 59 | 299 | 5.2 | 13.0 | 0.00 | 0.00 | 0.00 | 40 | 1013.2 |
| 20260503210003 | 58 | 297 | 4.3 | 13.0 | 0.00 | 0.00 | 0.00 | 39 | 1013.2 |
| 20260503205403 | 59 | 301 | 5.2 | 13.0 | 0.00 | 0.00 | 0.00 | 39 | 1013.1 |
| 20260503204503 | 59 | 297 | 7.0 | 12.2 | 0.00 | 0.00 | 0.00 | 23 | 1013.1 |
| 20260503203604 | 59 | 313 | 5.2 | 20.9 | 0.00 | 0.00 | 0.00 | 39 | 1013.1 |
| 20260503202702 | 58 | 294 | 7.0 | 20.9 | 0.00 | 0.00 | 0.00 | 22 | 1013.1 |
| 20260503201803 | 58 | 305 | 5.2 | 17.4 | 0.00 | 0.00 | 0.00 | 43 | 1013.2 |
| 20260503200903 | 57 | 278 | 7.0 | 17.4 | 0.00 | 0.00 | 0.00 | 39 | 1013.4 |
| 20260503200003 | 59 | 292 | 5.2 | 17.4 | 0.00 | 0.00 | 0.00 | 39 | 1013.4 |
| 20260503195403 | 59 | 304 | 4.3 | 12.2 | 0.00 | 0.00 | 0.00 | 40 | 1013.4 |
| 20260503194503 | 58 | 295 | 5.2 | 14.8 | 0.00 | 0.00 | 0.00 | 40 | 1013.6 |
| 20260503193603 | 58 | 327 | 5.2 | 13.0 | 0.00 | 0.00 | 0.00 | 40 | 1013.7 |
| 20260503192703 | 58 | 305 | 5.2 | 19.1 | 0.00 | 0.00 | 0.00 | 39 | 1014.0 |
| 20260503191803 | 58 | 290 | 5.2 | 19.1 | 0.00 | 0.00 | 0.00 | 46 | 1013.9 |
| 20260503190903 | 57 | 293 | 7.8 | 19.1 | 0.00 | 0.00 | 0.00 | 39 | 1013.9 |
| 20260503190024 | 57 | 280 | 7.0 | 13.0 | 0.00 | 0.00 | 0.00 | 40 | 1014.1 |
| 20260503185403 | 56 | 281 | 7.0 | 13.0 | 0.00 | 0.00 | 0.00 | 40 | 1013.9 |
| 20260503184503 | 57 | 312 | 5.2 | 16.5 | 0.00 | 0.00 | 0.00 | 43 | 1014.5 |
| 20260503183603 | 56 | 302 | 6.1 | 16.5 | 0.00 | 0.00 | 0.00 | 28 | 1014.5 |
| 20260503182703 | 55 | 308 | 6.1 | 20.9 | 0.00 | 0.00 | 0.00 | 43 | 1014.7 |
| 20260503181803 | 55 | 274 | 7.8 | 20.9 | 0.00 | 0.00 | 0.00 | 28 | 1014.7 |
| 20260503180903 | 55 | 285 | 7.8 | 17.4 | 0.00 | 0.00 | 0.00 | 46 | 1014.8 |
| 20260503180003 | 54 | 286 | 8.7 | 15.6 | 0.00 | 0.00 | 0.00 | 44 | 1014.7 |
| 20260503175403 | 54 | 302 | 7.8 | 15.6 | 0.00 | 0.00 | 0.00 | 44 | 1014.7 |
| 20260503174503 | 54 | 294 | 5.2 | 15.6 | 0.00 | 0.00 | 0.00 | 42 | 1014.7 |
| 20260503173603 | 54 | 280 | 7.8 | 15.6 | 0.00 | 0.00 | 0.00 | 45 | 1014.7 |
| 20260503172703 | 53 | 324 | 6.1 | 15.6 | 0.00 | 0.00 | 0.00 | 45 | 1014.8 |
| 20260503171803 | 53 | 297 | 6.1 | 19.1 | 0.00 | 0.00 | 0.00 | 48 | 1014.8 |
| 20260503170903 | 52 | 284 | 6.1 | 19.1 | 0.00 | 0.00 | 0.00 | 51 | 1015.0 |
| 20260503150903 | 48 | 316 | 6.1 | 15.6 | 0.00 | 0.00 | 0.00 | 52 | 1015.6 |
| 20260503130903 | 44 | 324 | 5.2 | 12.2 | 0.00 | 0.00 | 0.00 | 59 | 1015.7 |